Shelton, WA
on Thursday, December 27, 2012

Thursday
Previous Day Next Day
Daily Summary
 ActualAverage (KOLM)Record (KOLM)
Temperature
Mean Temperature °F 38°F  
Max Temperature 46°F 44°F 58°F (1980)
Min Temperature 35°F 33°F 16°F (1977)
Degree Days
Heating Degree Days 24 27  
Month to date heating degree days 718  
Since 1 July heating degree days 2163  
Cooling Degree Days 0 0  
Month to date cooling degree days 0  
Year to date cooling degree days 106  
Moisture
Dew Point 38°F   
Average Humidity 94    
Maximum Humidity 100    
Minimum Humidity 79    
Precipitation
Precipitation 0.02 in 0.23 in 2.94 in (1949)
Month to date precipitation 6.56  
Year to date precipitation 49.10  
Wind
Wind Speed 7 mph   
Max Wind Speed 15 mph   
Max Gust Speed mph   
Visibility 10 miles   
Events Rain   

Key: T is trace of precipitation, MM is missing value
Source: NWS Daily Summary
Time(PST)TemperatureDew PointHumidity Pressure Visibility Wind DirectionWind SpeedGust SpeedPrecipitationEvents Conditions
12:53 AM 41.0°F 39.0°F 93% 29.92 in 10.0 miles SW 12.7 mph - N/A   Overcast
1:48 AM 39.2°F 39.2°F 100% 29.93 in 10.0 miles WSW 9.2 mph - N/A   Overcast
1:53 AM 39.9°F 39.0°F 97% 29.95 in 10.0 miles WSW 9.2 mph - N/A   Overcast
2:19 AM 39.2°F 39.2°F 100% 29.95 in 10.0 miles WSW 8.1 mph - N/A   Overcast
2:26 AM 39.2°F 39.2°F 100% 29.95 in 10.0 miles WSW 9.2 mph - N/A   Overcast
2:53 AM 39.9°F 39.0°F 97% 29.98 in 10.0 miles West 3.5 mph - N/A   Overcast
3:53 AM 39.9°F 39.0°F 97% 29.99 in 10.0 miles West 4.6 mph - N/A   Overcast
4:53 AM 39.9°F 37.9°F 93% 30.01 in 10.0 miles West 8.1 mph - N/A   Overcast
5:53 AM 39.0°F 37.9°F 96% 30.02 in 10.0 miles West 5.8 mph - N/A   Overcast
6:53 AM 39.0°F 37.9°F 96% 30.04 in 10.0 miles West 3.5 mph - N/A   Overcast
7:53 AM 37.9°F 37.9°F 100% 30.06 in 10.0 miles WNW 4.6 mph - N/A   Overcast
8:45 AM 39.2°F 37.4°F 93% 30.06 in 10.0 miles WSW 4.6 mph - N/A   Overcast
8:53 AM 39.0°F 37.9°F 96% 30.08 in 10.0 miles WSW 4.6 mph - N/A   Overcast
9:00 AM 39.2°F 37.4°F 93% 30.06 in 10.0 miles West 4.6 mph - N/A   Overcast
9:12 AM 39.2°F 37.4°F 93% 30.07 in 10.0 miles WSW 5.8 mph - N/A   Overcast
9:48 AM 41.0°F 39.2°F 93% 30.08 in 10.0 miles Calm Calm - N/A   Mostly Cloudy
9:53 AM 41.0°F 39.9°F 96% 30.09 in 10.0 miles Calm Calm - N/A   Mostly Cloudy
10:44 AM 42.8°F 39.2°F 87% 30.09 in 10.0 miles WSW 10.4 mph - N/A   Mostly Cloudy
10:53 AM 44.1°F 39.9°F 85% 30.11 in 10.0 miles SSW 12.7 mph - N/A   Mostly Cloudy
11:36 AM 44.6°F 41.0°F 87% 30.10 in 10.0 miles SW 12.7 mph - N/A   Overcast
11:53 AM 45.0°F 41.0°F 86% 30.12 in 10.0 miles SW 15.0 mph - N/A   Overcast
12:53 PM 46.0°F 39.9°F 79% 30.11 in 10.0 miles WSW 10.4 mph - N/A   Mostly Cloudy
1:43 PM 42.8°F 39.2°F 87% 30.10 in 10.0 miles WSW 9.2 mph - 0.00 in Rain Light Rain
1:53 PM 43.0°F 37.9°F 82% 30.11 in 10.0 miles WSW 10.4 mph - 0.01 in Rain Light Rain
2:19 PM 44.6°F 41.0°F 87% 30.11 in 10.0 miles SW 3.5 mph - 0.01 in   Overcast
2:53 PM 44.1°F 39.9°F 85% 30.13 in 10.0 miles WSW 6.9 mph - 0.01 in Rain Light Rain
3:04 PM 42.8°F 39.2°F 87% 30.12 in 10.0 miles WSW 9.2 mph - 0.00 in Rain Light Rain
3:22 PM 42.8°F 39.2°F 87% 30.12 in 10.0 miles SSW 6.9 mph - 0.00 in   Overcast
3:50 PM 42.8°F 39.2°F 87% 30.11 in 10.0 miles Calm Calm - 0.00 in   Mostly Cloudy
3:53 PM 41.0°F 39.2°F 93% 30.11 in 10.0 miles SSE 3.5 mph - N/A   Mostly Cloudy
4:01 PM 41.0°F 39.2°F 93% 30.12 in 10.0 miles South 4.6 mph - N/A   Scattered Clouds
4:53 PM 37.0°F 37.0°F 100% 30.14 in 9.0 miles SW 3.5 mph - N/A   Scattered Clouds
5:53 PM 37.9°F 37.9°F 100% 30.14 in 10.0 miles Calm Calm - N/A   Overcast
6:53 PM 37.9°F 37.9°F 100% 30.14 in 10.0 miles Calm Calm - N/A   Overcast
7:06 PM 35.6°F 35.6°F 100% 30.12 in 10.0 miles Calm Calm - N/A   Overcast
7:53 PM 37.9°F 37.9°F 100% 30.14 in 10.0 miles Calm Calm - 0.00 in   Overcast
8:16 PM 37.4°F 35.6°F 93% 30.12 in 10.0 miles Calm Calm - N/A   Overcast
8:53 PM 35.1°F 34.0°F 96% 30.13 in 4.0 miles Calm Calm - 0.00 in Rain Light Rain
9:13 PM 35.6°F 35.6°F 100% 30.12 in 3.0 miles Calm Calm - 0.00 in   Overcast
9:53 PM 37.0°F 36.0°F 96% 30.14 in 10.0 miles NNW 3.5 mph - 0.00 in   Overcast
10:06 PM 35.6°F 35.6°F 100% 30.12 in 10.0 miles Calm Calm - N/A   Overcast
10:13 PM 35.6°F 35.6°F 100% 30.12 in 10.0 miles Calm Calm - N/A   Overcast
10:53 PM 36.0°F 36.0°F 100% 30.14 in 10.0 miles Calm Calm - N/A   Overcast
11:53 PM 37.0°F 37.0°F 100% 30.14 in 10.0 miles Calm Calm - N/A   Overcast
Moon Phase
Dec. 27 Dec. 28 Jan. 04 Jan. 11 Jan. 18
Sunrise:07:58 AM (PST) Moon Rise:04:19 PM (PST)12/27
Sunset:04:29 PM (PST) Moon Set:07:11 AM (PST)12/27

Copyright © 2014 The Weather Underground, Inc.